Home   Weather   Bismarck   Past weeks

Flag for USA Past Weather in Bismarck, North Dakota, USA — Yesterday and Last 2 Weeks

Now
-6 °F

Light snow. Ice fog.


Feels Like: -23 °F
Forecast: -20 / -1 °F
Wind: 9 mph from East

Location: Bismarck Municipal Airport

Current Time: Dec 10, 2016 at 2:31:13 pm

Latest Report: Dec 10, 2016 at 1:52 pm


Visibility: 2 mi

Pressure: 30.32 "Hg (28.29 "Hg at 513m altitude)

Humidity: 87%

Dew Point: -9 °F

Location of BismarckLocation

Past Weather in Bismarck — Graph

°F

Bismarck Temperature Yesterday

Maximum temperature yesterday: 0 °F (at 11:52 am)
Minimum temperature yesterday: -17 °F (at 10:52 pm)
Average temperature yesterday: -8 °F

High & Low Weather Summary for the Past Weeks

 TemperatureHumidityPressure
High51 °F (Nov 26, 2:52 pm)100% (Nov 26, 5:52 am)30.80 "Hg (Nov 26, 5:52 am)
Low-17 °F (Dec 9, 10:52 pm)38% (Nov 26, 2:52 pm)28.98 "Hg (Nov 28, 8:01 am)
Average19 °F85%30.00 "Hg
* Reported Nov 25 12:52 pm — Dec 10 12:52 pm, Bismarck, Weather by CustomWeather, © 2016

Note: Actual official high and low records may vary slightly from our data, if they occured in-between our weather recording intervals... More about our weather records

Advertising

Bismarck Weather History for the Previous 24 Hours

Scroll right to see more
 ConditionsComfort  
Time TempWeatherWind HumidityBarometerVisibility
12:52 pm
Sat, Dec 10
-8 °FLight snow. Mostly cloudy.7 mphN/A30.38 "Hg8 mi
11:52 am-11 °FOvercast.9 mph86%30.42 "Hg10 mi
10:52 am-14 °FOvercast.7 mph86%30.48 "Hg10 mi
9:52 am-16 °FSunny.6 mph82%30.49 "Hg10 mi
8:52 am-17 °FSunny.6 mph77%30.51 "Hg10 mi
7:52 am-17 °FLow clouds.3 mph77%30.51 "Hg9 mi
6:52 am-16 °FIce fog.7 mph82%30.53 "Hg5 mi
5:52 am-14 °FIce fog.6 mph82%30.55 "Hg6 mi
4:52 am-13 °FLow clouds.5 mph82%30.58 "Hg7 mi
3:52 am-13 °FLow clouds.5 mph82%30.61 "Hg10 mi
2:52 am-14 °FLow clouds.3 mph78%30.63 "Hg9 mi
1:52 am-16 °FLow clouds.6 mph78%30.64 "Hg10 mi
12:52 am-15 °FLow clouds.3 mph82%30.65 "Hg10 mi
11:52 pm
Fri, Dec 9
-17 °FLow clouds.No wind82%30.67 "Hg10 mi
10:52 pm-17 °FPassing clouds.No wind82%30.69 "Hg10 mi
9:52 pm-15 °FPassing clouds.No wind82%30.70 "Hg10 mi
8:52 pm-16 °FClear.No wind82%30.70 "Hg10 mi
7:52 pm-9 °FClear.5 mph82%30.70 "Hg10 mi
6:52 pm-7 °FClear.3 mph79%30.71 "Hg10 mi
5:52 pm-6 °FClear.6 mphN/A30.71 "Hg10 mi
4:52 pm-4 °FSunny.8 mphN/A30.71 "Hg10 mi
3:52 pm-1 °FPartly sunny.7 mph75%30.70 "Hg10 mi
2:52 pm0 °FPassing clouds.9 mph71%30.70 "Hg10 mi
Weather by CustomWeather, © 2016

See weather overviewHow to use our weather pages